Location: Aranbee
(34.0885°N, 118.2342°W)
Time: 09:14:02
(UTC+00:00)

Courier 1B Rocket - Pass Details

Date: 01 December 2020
Orbit: 920 x 1202 km, 28.2° (Epoch: 27 January)

Event Time Altitude Azimuth Distance (km) Brightness Sun altitude
Rises 16:20:32 0° 270° (W) 4,090 7.8 16.3°
Reaches altitude 10° 16:23:34 10° 264° (W) 3,111 7.3 16.7°
Maximum altitude 16:30:44 42° 196° (SSW) 1,589 6.7 17.8°
Drops below altitude 10° 16:37:34 10° 128° (SE) 2,961 9.8 18.8°
Sets 16:40:24 0° 122° (ESE) 3,874 9.6 19.2°
